Location: *
(51.0333°S, 178.4667°E)
Time: 12:26:23
(UTC+00:00)

CZ-4 R/B - Pass Details

Date: 01 March 2020
Orbit: 531 x 599 km, 97.8° (Epoch: 05 April)

Event Time Altitude Azimuth Distance (km) Brightness Sun altitude
Rises 09:13:49 0° 182° (S) 2,849 5.6 -19.4°
Reaches altitude 10° 09:17:05 10° 209° (SSW) 1,953 5.2 -19.8°
Maximum altitude 09:18:58 13° 236° (SW) 1,774 5.0 -20.0°
Drops below altitude 10° 09:20:51 10° 262° (W) 1,956 4.9 -20.3°
Sets 09:24:08 0° 290° (WNW) 2,859 5.3 -20.6°
